Tracking 25686 objects as of 25-May-2022
HD Live streaming from Space Station
objects crossing your sky now

SL-14 DEB

Track SL-14 DEB now!
10-day predictions


NORAD ID: 26003
Int'l Code: 1991-068N
Perigee: 1,337.7 km
Apogee: 1,494.8 km
Inclination: 82.7 °
Period: 114.0 minutes
Semi major axis: 7787 km
RCS: 0.0354 m2 (small)
Launch date: September 28, 1991
Source: Commonwealth of Independent States (former USSR) (CIS)
Launch site: PLESETSK MISSILE AND SPACE COMPLEX (PKMTR)

Note: This is SATELLITE DEBRIS
aabbcc
Your satellite tracking list
Your tracking list is empty




NASA's NSSDC Master Catalog

Two Line Element Set (TLE):
1 26003U 91068N   22144.40984921  .00002882  00000-0  15516-1 0  9994
2 26003  82.7212  18.2262 0100884 104.2774  70.3585 12.63353718 36648
Source of the keplerian elements: AFSPC